Regional Weather Roundup
Issued by NWS Pendleton, OR

Home | Current Version | Previous Version | Text Only | Print | Product List | Glossary On
Versions: 1 2 3 4 5 6 7 8 9 10 11 12 13 14 15 16 17 18 19 20 21 22 23 24 25 26 27 28 29 30 31 32 33 34 35 36 37 38 39 40 41 42 43 44 45 46 47 48 49 50
000
ASUS46 KPDT 231625
RWRPDT
PENDLETON REGIONAL WEATHER ROUNDUP
NATIONAL WEATHER SERVICE PENDLETON OREGON
800 AM PST SUN NOV 23 2014

NOTE: FAIR INDICATES FEW OR NO CLOUDS BELOW 12,000 FEET WITH NO
SIGNIFICANT WEATHER AND/OR OBSTRUCTIONS TO VISIBILITY.

# INDICATES UNOFFICIAL STATION AND DATA

WAZ520-231710-
EAST SLOPES OF WASHINGTON CASCADES

CITY            SKY/WX      TMP DP  RH  WIND    PRES   REMARKS
#BULLFROG 2SW   N/A         36  35  96  S1      27.63F
#BUMPING DAM    N/A         33  N/A N/A S7      N/A
#CLE ELUM HS    N/A         35  34  96  CALM    30.01F
#CLE ELUM 2NW   N/A         34  34  100 CALM    N/A
#CLE ELUM LAKE  N/A         N/A N/A N/A SW7     30.11F
#CLIFFDEL 2NW   N/A         37  33  85  W6      N/A
#GLENWOOD       N/A         43  38  82  S7      30.17F
#MANASTASH CYN  N/A         31  28  88  CALM    30.01F
#NELSON         N/A         34  33  96  CALM    30.12F
#NELSON 3SW     N/A         34  33  96  CALM    30.29F
#NILE           N/A         32  31  96  CALM    29.38F
#RONALD 2NW     N/A         37  35  92  E2      29.91F
#SNOWDEN        N/A         41  35  79  NW7     N/A
#TEANAWAY 4NE   N/A         36  35  96  N3      N/A
#TROUT LAKE HS  N/A         43  41  93  W2      N/A
#TROUT LAKE 1NE N/A         41  38  89  W3      30.25R
$$

WAZ521-231710-
SIMCOE HIGHLANDS

CITY            SKY/WX      TMP DP  RH  WIND    PRES   REMARKS
#BICKLETON HS   N/A         36  32  85  SW7     30.24S
#CENTERVILLE 4W N/A         42  38  86  W3      29.93R
#CENTERVILLE 1SWN/A         40  36  85  W6      30.20S
#GOLDENDALE     N/A         41  37  86  W6      N/A
#GOLDENDALE 1NE N/A         42  38  86  S7      N/A
#GOLDENDALE 1S  N/A         42  39  89  SW8     30.14S
#GOODNOE HILLS  N/A         41  37  86  NW3     N/A
#LYLE 6NE       N/A         44  39  82  S13     30.17F WCI 38
$$

WAZ026-231710-
KITTITAS VALLEY

CITY            SKY/WX      TMP DP  RH  WIND    PRES   REMARKS
ELLENSBURG AP   MOCLDY      37  32  82  CALM    30.08F
#ELLENSBURG CWU N/A         36  33  89  CALM    30.08S
#ELLENSBURG 3NE N/A         36  33  89  CALM    30.07F
#ELLENSBURG     N/A         36  36  100 CALM    N/A
#ELLENSBURG 1E  N/A         31  28  88  CALM    N/A
#KITTITAS 4N    N/A         33  29  85  CALM    30.11F
#KITTITAS 3S    N/A         29  27  92  CALM    30.11F
#THORP 6N       N/A         36  34  92  SE1     30.14F
$$

WAZ027-231710-
YAKIMA VALLEY

CITY            SKY/WX      TMP DP  RH  WIND    PRES   REMARKS
SUNNYSIDE AP    MOCLDY      37  32  82  E7      30.14F
YAKIMA AIRPORT  MOCLDY      30  25  81  CALM    30.13F
YAKIMA-VAGABOND MOCLDY      30  28  92  W5      30.11F
#DONALD 2NE     N/A         41  30  65  SW2     28.96F
#GRANDVIEW      N/A         42  35  76  SW3     30.20R
#MABTON         N/A         47  39  74  S7      30.15R
#NACHES 2SW     N/A         36  30  79  CALM    30.09S
#OUTLOOK DOT    N/A         N/A N/A N/A E7      N/A
#SELAH 8E       N/A         40  31  70  S13     N/A    WCI 32
#TERRACE HTS    N/A         38  32  79  CALM    30.13S
#TOPPENISH      N/A         38  32  79  CALM    30.07F
#WAPATO 4NE     N/A         41  30  65  SW2     28.96F
#WEST VALLEY    N/A         32  28  85  CALM    30.13F
#W YAKIMA       N/A         35  30  82  CALM    30.14F
#WHITE SWAN 5E  N/A         34  30  85  CALM    30.14F
#WILEY CITY 3W  N/A         32  27  82  CALM    30.15R
$$

WAZ028-231710-
LOWER COLUMBIA BASIN...WASHINGTON

CITY            SKY/WX      TMP DP  RH  WIND    PRES   REMARKS
HANFORD         CLOUDY      32  30  92  E5      30.13S
PASCO           CLOUDY      48  37  65  SW18G28 30.19R WCI 41
PROSSER AWOS    N/A         46  37  71  S21     30.19R WCI 38
RICHLAND AWOS   CLOUDY      48  36  63  SW12    30.18R WCI 43
#BASIN CITY 5SW N/A         43  39  86  SE2     30.16S
#CONNELL 5N     N/A         37  34  89  S3      30.17S
#CONNELL 5NW    N/A         37  34  89  S6      30.14S
#ELTOPIA 6NW    N/A         42  38  86  S7      29.11R
#KAHLOTUS       N/A         41  36  82  W23G31  30.17R WCI 31
#KENNEWICK      N/A         36  35  96  S1      27.63F
#KENNEWICK 3S   N/A         45  37  73  SE13G26 30.19R WCI 39
#PATERSON       N/A         46  38  73  CALM    30.20R
#PROSSER        N/A         45  37  73  S20G28  30.17R WCI 37
#SAGEMOOR 2W    N/A         45  39  79  N14     30.03S WCI 39
#TOUCHET 2S     N/A         49  37  63  SW21G30 30.15F WCI 42
#WEST PASCO     N/A         48  38  68  S7      30.20R
$$

WAZ029-231710-
FOOTHILLS OF THE BLUES...WASHINGTON

CITY            SKY/WX      TMP DP  RH  WIND    PRES   REMARKS
WALLA WALLA AP  CLOUDY      46  34  63  S14     30.20S WCI 40
#COLLEGE PLACE  N/A         46  32  58  S7      30.23S
#DAYTON SCHOOL  N/A         46  30  53  S15G28  30.19S WCI 40
#LOWDEN 2SE     N/A         50  35  56  SW16G26 30.16S
#PLEASANT VIEW 1N/A         39  36  89  S15     30.24S WCI 31
#PRESCOTT       N/A         43  37  79  CALM    30.21R
#SUDBURY        N/A         48  N/A N/A CALM    N/A
#WHITMAN COLLEGEN/A         47  35  63  S5      30.27S
#WAITSBURG 5S   N/A         42  35  76  S15     30.32S WCI 34
#WAITSBURG 8N   N/A         40  23  50  S10     30.15S
#WALLA WALLA 5E N/A         46  32  58  S6      N/A
#WALLA WALLA U  N/A         48  36  63  CALM    30.21S
#WHITMAN MISSIONN/A         48  36  63  S7      30.22S
$$

WAZ030-231710-
BLUE MOUNTAINS...WASHINGTON

CITY            SKY/WX      TMP DP  RH  WIND    PRES   REMARKS
#DIXIE 5SE      N/A         40  30  67  S14     30.11S WCI 32
$$

ORZ009-041-WAZ024-231710-
COLUMBIA RIVER GORGE

CITY            SKY/WX      TMP DP  RH  WIND    PRES   REMARKS
HOOD RIVER AP   PTCLDY      41  39  93  CALM    30.23R
THE DALLES AP   PTCLDY      42  35  76  NE7     30.22S
#ARLINGTON AIRPON/A         46  35  65  SW7     29.96F
#CELILO DOT     N/A         45  35  68  S1      N/A
#MARYHILL 2W    N/A         43  40  89  MISG    N/A
#MOSIER 1S      N/A         49  30  48  SW6     30.21S
#MURDOCK        N/A         44  40  86  W1      30.24S
#RUFUS DOT      N/A         45  35  68  S2      N/A

$$

ORZ510-231710-
NORTH CENTRAL OREGON

CITY            SKY/WX      TMP DP  RH  WIND    PRES   REMARKS
#CHENOWITH 1W   N/A         44  36  73  W13     N/A    WCI 38
#COW CYN RST AREN/A         38  30  73  SW8     N/A
#DUFUR 9E       N/A         42  35  76  SW14    30.28S WCI 35
#GRASS VALLEY   N/A         39  33  79  S8      N/A
#GRASS VALLEY 1SN/A         40  33  76  SW12    30.28R WCI 33
#KENT DOT       N/A         38  26  62  SW18    N/A    WCI 28
#MAUPIN SCHOOL  N/A         43  33  67  CALM    29.13S
#MORO SCHOOL    N/A         42  38  86  SW7     30.21F
#SHANIKO 5WSW   N/A         35  24  64  S15     N/A    WCI 25
#SHANIKO 4NW    N/A         35  29  78  S9      30.20R
#TYGH VALLEY 2NEN/A         48  36  63  SW12    30.24R WCI 43
#WAPANITIA AIRPON/A         45  35  68  S5      30.28S
#WASCO DOT      N/A         45  35  68  SW15    N/A    WCI 38
#WASCO 5NE      N/A         41  35  79  N2      30.22F
$$

ORZ511-231710-
CENTRAL OREGON

CITY            SKY/WX      TMP DP  RH  WIND    PRES   REMARKS
BEND AIRPORT    PTCLDY      37  30  75  SW18    30.27R WCI 27
MADRAS AIRPORT  SUNNY       39  32  76  MISG    30.26R
PRINEVILLE AP   SUNNY       32  28  85  CALM    30.29R
REDMOND AIRPORT SUNNY       29  27  92  SE5     30.27R
#BEND 6E        N/A         39  28  64  CALM    30.34R
#BEND 1SW       N/A         34  31  89  S2      N/A
#BEND-AWBREY    N/A         36  33  89  N9      30.34R
#BEND-KIM LN    N/A         35  31  85  S3      30.22R
#CROOKED RVR RANN/A         35  30  82  W21     30.33R WCI 24
#CULVER         N/A         41  31  67  S7      30.22R
#LAKE BILLY CHINN/A         41  19  41  SE16    30.30R WCI 33
#POWELL BUTTE 3EN/A         34  28  78  E6      N/A
#POWELL BUTTE   N/A         40  30  67  SW7     29.88R
#PRINEVILLE 3N  N/A         25  23  92  CALM    30.34R
#WARM SPRINGS   N/A         26  24  92  CALM    30.24R


ORZ509-231710-
EAST SLOPES OF OREGON CASCADES

CITY            SKY/WX      TMP DP  RH  WIND    PRES   REMARKS
#BLUE BOX PASS  N/A         34  -14 11  W2      N/A
#BLACK BUTTE RNCN/A         39  35  85  CALM    30.34R
#CAMP SHERMAN   N/A         40  33  76  SE2     30.35R
#LA PINE DOT    N/A         30  27  88  CALM    N/A
#LA PINE 4NW    N/A         30  27  88  CALM    30.44R
#LAVA BUTTE DOT N/A         31  29  92  S3      N/A
#MT BACHELOR-MIDN/A         23  22  96  S12     N/A    WCI 11
#SISTERS AIRPOR N/A         34  32  92  CALM    29.91S
#SISTERS ODOT   N/A         40  N/A N/A S3G28   N/A
#SISTERS 3N     N/A         35  28  75  SE3     30.27R
#SUNRIVER       N/A         34  32  92  S2      30.26R
#SUNRIVER AP    N/A         44  43  96  CALM    30.27F
#SUTTLE LK DOT  N/A         32  32  100 W44G68  N/A    WCI 15
#TUMALO 3W      N/A         35  30  82  S5      30.22R
#WANOGA BUTTE D N/A         27  26  96  W6      N/A

$$

ORZ044-231710-
LOWER COLUMBIA BASIN...OREGON

CITY            SKY/WX      TMP DP  RH  WIND    PRES   REMARKS
HERMISTON       MOCLDY      46  33  60  S10     30.21R
#BOARDMAN 3W    N/A         45  36  70  SW8     29.94S
#ECHO 8SW       N/A         46  34  63  SW7     30.18F
#IONE SCHOOL    N/A         46  32  58  S7      30.20F
#IRRIGON 4NW    N/A         45  34  65  S7      N/A
#UMATILLA SCHOOLN/A         44  38  79  S2      30.20F
#UMATILLA       N/A         48  33  56  S2      30.19R
$$

ORZ507-231710-
NORTHERN FOOTHILLS OF THE BLUES

CITY            SKY/WX      TMP DP  RH  WIND    PRES   REMARKS
PENDLETON AIRPT MOCLDY      42  31  65  S6      30.21R
#ADAMS 3WNW     N/A         42  34  73  SW8     30.24S
#ATHENA         N/A         44  34  68  SW3     30.27R
#CAYUSE         N/A         47  33  58  SW10    30.24R
#HELIX SCHOOL   N/A         40  34  79  S7      30.24S
#HELIX 3N       N/A         40  34  79  S13     30.15R WCI 32
#HOLDMAN 5SE    N/A         44  36  73  S1      30.20R
#HOLDMAN 6E     N/A         40  33  76  NW6     30.05R
#M-F FERNDALE   N/A         48  33  56  CALM    30.20S
#M-F GROVE ELEM N/A         46  31  56  S7      30.18S
#M-FREEWATER 5SEN/A         48  33  56  SW6     30.20R
#PENDLETON DNTN N/A         45  27  49  CALM    29.03S
#PDT AQUATIC CTRN/A         46  31  56  CALM    30.17S
#PENDLETON 5NE  N/A         44  34  68  SW3     30.16S
#PDT SUNRIDGE   N/A         43  33  67  SE2     30.23S
#PENDLETON 7NW  N/A         44  34  68  SW2     26.75F
#PILOT ROCK     N/A         45  29  53  S8      30.22S
#TUTUILLA       N/A         43  34  70  S2      30.24R
#UMAPINE 2E     N/A         49  35  58  SW6     30.18S
#WESTON SCHOOL  N/A         44  31  60  W9      30.16S

$$

ORZ508-231710-
SOUTHERN FOOTHILLS OF THE BLUES

CITY            SKY/WX      TMP DP  RH  WIND    PRES   REMARKS
LEXINGTON       MOCLDY      46  32  58  S13     30.24R WCI 40
#AJAX           N/A         42  27  55  S20G29  30.11F WCI 33
#CONDON SCHOOL  N/A         38  32  79  CALM    30.15S
#CONDON 5W      N/A         35  28  75  S15     30.15F WCI 25
#FOSSIL SCHOOL  N/A         35  29  78  CALM    30.19S
#HEPPNER EOC    N/A         42  33  70  S1      30.21R
#HEPPNER 4NE    N/A         39  31  73  S1      30.25S
#LEXINGTON 2SE  N/A         45  33  63  S3      30.18R
#MIKKALO        N/A         41  30  65  SE5     30.19F
#OLEX 4N        N/A         42  34  73  S12     30.19F WCI 35
#RUGGS 5NE      N/A         38  29  70  S6      30.36R
#RUGGS 2SW      N/A         38  29  70  SW6     30.28S

$$

ORZ502-503-231710-
BLUE MOUNTAINS

CITY            SKY/WX      TMP DP  RH  WIND    PRES   REMARKS
MEACHAM         CLOUDY      35  31  85  CALM    30.19S
#BATTLE MTN DOT N/A         31  30  96  SE7     N/A
#HEPPNER 15SE   N/A         34  30  85  N1      30.11R
#LADD CYN SMT   N/A         36  25  64  CALM    N/A
#LADD CREEK ODOTN/A         33  -14 12  SE8     N/A
#LONG CREEK HS  N/A         37  32  82  S7      30.19F
#N POWDER DOT   N/A         30  27  88  S5      N/A
#PIKES PEAK     N/A         37  29  72  SW18G29 27.99S WCI 27
#TOLLGATE       N/A         29  28  96  S5      30.06R
#TROY SCHOOL    N/A         37  34  89  NW5     30.10S
#UKIAH          N/A         30  28  92  N1      30.36S
#WESTON 4E      N/A         39  31  73  SW8     30.22R
$$

ORZ505-231710-
JOHN DAY BASIN

CITY            SKY/WX      TMP DP  RH  WIND    PRES   REMARKS
JOHN DAY        PTCLDY      34  30  85  CALM    30.27R
#DAYVILLE SCHOOLN/A         32  27  82  CALM    30.25R
#MONUMENT HS    N/A         30  27  88  CALM    30.27S
#MT. VERNON 5SE N/A         34  27  75  CALM    30.22R
#WINLOCK        N/A         35  30  82  CALM    30.31R
$$

ORZ506-231710-
OCHOCO AND JOHN DAY HIGHLANDS

CITY            SKY/WX      TMP DP  RH  WIND    PRES   REMARKS
#BUCK CREEK DOT N/A         35  33  92  S8      N/A
#HORSE RIDGE DO N/A         35  27  72  S7      N/A
#KEYES SMT DOT  N/A         34  26  72  SW3     N/A
#PAULINA SCHOOL N/A         26  23  88  CALM    30.26R
#PINE MTN OBS   N/A         25  24  96  S10     N/A
#PRAIRIE CITY   N/A         29  25  85  CALM    30.46F
#SENECA         N/A         20  N/A N/A W1      N/A
#SENECA 9NW     N/A         22  21  96  CALM    30.37R
$$

ORZ049-231710-
GRANDE RONDE VALLEY

CITY            SKY/WX      TMP DP  RH  WIND    PRES   REMARKS
LA GRANDE       MOCLDY      41  27  57  W3      30.22F
#COVE           N/A         38  32  79  CALM    30.03S
#COVE SCHOOL    N/A         38  32  79  E1      30.19S
#COVE 6NW       N/A         36  30  79  CALM    30.33F
#ELGIN 3N       N/A         39  28  64  S7      29.93R
#ELGIN 1E       N/A         39  30  70  CALM    N/A
#IMBLER SCHOOL  N/A         39  30  70  S5      30.18S
#ISLAND CITY 4N N/A         45  44  96  CALM    30.25F
#LADD CYN DOT   N/A         36  29  75  SE8     N/A
#UNION 1S       N/A         38  31  76  CALM    30.21F
$$

ORZ050-231710-
WALLOWA COUNTY

CITY            SKY/WX      TMP DP  RH  WIND    PRES   REMARKS
#ENTERPRISE AP  N/A         34  25  69  CALM    30.11F
#ENTERPRISE HS  N/A         33  28  82  CALM    30.18F
#IMNAHA SCHOOL  N/A         39  28  64  S7      30.23S
#IMNAHA 10S     N/A         34  26  72  SW7     30.20F
#JOSEPH 3N      N/A         30  24  78  E5      30.18F
#JOSEPH 3W      N/A         32  24  72  CALM    29.98F
#LOSTINE        N/A         40  27  59  S6      30.04F
#MT HOWARD 8000 N/A         19  17  92  W8      30.04F
#PROMISE 1S     N/A         35  31  85  NE2     30.35F
#SHEEP RDG 7000 N/A         22  18  84  CALM    30.34S
#WALLOWA SCHOOL N/A         40  30  67  W1      31.22F



$$



USA.gov is the U.S. government's official web portal to all federal, state and local government web resources and services.